Weather History for Biloxi, MS

Change the Weather History Date:

Saturday, June 29, 2013

  Actual Average Record
Temperature  
Mean Temperature 84 °F -  
Max Temperature 91 °F 89 °F 98 °F (1969)
Min Temperature 77 °F 74 °F 60 °F (1974)
Cooling Degree Days 18    
Growing Degree Days 34 (Base 50)    
Moisture  
Dew Point 72 °F    
Average Humidity 71    
Maximum Humidity 82    
Minimum Humidity 61    
Precipitation  
Precipitation 0.00 in - - ()
Sea Level Pressure  
Sea Level Pressure 29.76 in    
Wind  
Wind Speed 5 mph (West)    
Max Wind Speed 10 mph    
Max Gust Speed -    
Visibility 10 miles    
Events Rain    
Averages and records for this station are not official NWS values.
T = Trace of Precipitation, MM = Missing Value Source: NWS Daily Summary

Daily Weather History Graph

Daily Weather History Graph

Search for Another Location

Airport:

Trip Planner

Search our weather history database for the weather conditions in past years. The results will help you decide how hot, cold, wet, or windy it might be!

Date:

Astronomy

Jun. 29, 2013 Rise Set
Actual Time 5:56 AM CDT 8:01 PM CDT
Civil Twilight 5:28 AM CDT 8:29 PM CDT
Nautical Twilight 4:55 AM CDT 9:02 PM CDT
Astronomical Twilight 4:19 AM CDT 9:38 PM CDT
Moon No Moon Rise 12:36 PM CDT (6/29)
Length of Visible Light 15h 00m
Length of Day
14h 05m
Waning Gibbous, 55% of the Moon is Illuminated
Jun 29
Waning Gibbous
Jun 29
Last Quarter
Jul 8
New
Jul 15
First Quarter
Jul 22
Full

Hourly Weather History & Observations

Time (CDT) Temp. Heat Index Dew Point Humidity Pressure Visibility Wind Dir Wind Speed Gust Speed Precip Events Conditions
12:58 AM 84.2 °F 92.3 °F 75.0 °F 74% 29.81 in 10.0 mi Variable 3.5 mph - N/A   Clear
1:58 AM 83.5 °F 91.6 °F 75.7 °F 77% 29.80 in 10.0 mi Variable 5.8 mph - N/A   Mostly Cloudy
2:58 AM 80.6 °F 85.9 °F 74.5 °F 82% 29.74 in 10.0 mi SW 5.8 mph - N/A   Clear
3:24 AM 82.4 °F 88.2 °F 73.4 °F 74% 29.75 in 10.0 mi West 6.9 mph - N/A Rain Light Rain
3:57 AM 78.8 °F - 69.8 °F 74% 29.77 in 10.0 mi Variable 5.8 mph - N/A   Clear
3:58 AM 79.2 °F - 69.3 °F 72% 29.78 in 10.0 mi Variable 5.8 mph - 0.00 in   Clear
4:58 AM 77.5 °F - 69.4 °F 76% 29.77 in 10.0 mi Calm Calm - 0.00 in   Clear
5:58 AM 77.9 °F - 67.5 °F 70% 29.79 in 10.0 mi Variable 2.3 mph - N/A   Mostly Cloudy
6:58 AM 78.3 °F - 70.5 °F 77% 29.80 in 10.0 mi WSW 3.5 mph - N/A   Scattered Clouds
7:58 AM 81.3 °F 85.8 °F 72.0 °F 73% 29.80 in 10.0 mi NW 4.6 mph - N/A   Partly Cloudy
8:58 AM 79.3 °F - 71.1 °F 76% 29.82 in 10.0 mi Variable 3.5 mph - N/A   Mostly Cloudy
9:58 AM 79.2 °F - 70.0 °F 73% 29.82 in 10.0 mi Variable 1.2 mph - N/A   Mostly Cloudy
10:58 AM 83.1 °F 88.1 °F 71.4 °F 68% 29.80 in 10.0 mi NW 6.9 mph - N/A   Partly Cloudy
11:58 AM 87.3 °F 94.5 °F 72.7 °F 62% 29.79 in 10.0 mi NW 9.2 mph - N/A   Partly Cloudy
2:58 PM 90.3 °F 101.0 °F 75.0 °F 61% 29.76 in 10.0 mi WNW 6.9 mph - N/A   Partly Cloudy
3:58 PM 89.8 °F 99.7 °F 74.5 °F 61% 29.73 in 10.0 mi WSW 9.2 mph - N/A   Clear
4:58 PM 89.6 °F 99.3 °F 74.7 °F 61% 29.70 in 10.0 mi SW 10.4 mph - N/A   Clear
5:58 PM 89.8 °F 99.7 °F 74.7 °F 61% 29.70 in 10.0 mi WSW 9.2 mph - N/A   Clear
6:58 PM 88.2 °F 98.0 °F 75.2 °F 65% 29.70 in 10.0 mi West 8.1 mph - N/A   Clear
7:58 PM 84.9 °F 92.1 °F 73.6 °F 69% 29.72 in 10.0 mi West 8.1 mph - N/A   Clear
8:58 PM 83.5 °F 90.0 °F 73.8 °F 72% 29.73 in 10.0 mi West 4.6 mph - N/A   Partly Cloudy
9:58 PM 80.2 °F 84.3 °F 72.5 °F 77% 29.75 in 10.0 mi NE 6.9 mph - N/A   Partly Cloudy
10:58 PM 79.5 °F - 71.4 °F 76% 29.76 in 10.0 mi Calm Calm - N/A   Scattered Clouds
11:58 PM 78.4 °F - 71.2 °F 78% 29.76 in 10.0 mi NE 6.9 mph - N/A   Scattered Clouds